Location: Paralde Spring
(38.5794°N, 119.0140°W)
Time: 23:58:52
(UTC+00:00)

SL-4 R/B - Pass Details

Date: 18 September 2020
Orbit: 428 x 666 km, 51.6° (Epoch: 20 October)

Event Time Altitude Azimuth Distance (km) Brightness Sun altitude
Exits shadow 12:36:21 12° 216° (SW) 1,814 4.2 -13.3°
Maximum altitude 12:40:26 62° 136° (SE) 715 2.7 -12.5°
Drops below altitude 10° 12:45:09 10° 57° (ENE) 2,069 6.2 -11.6°
Sets 12:47:34 0° 54° (NE) 2,997 7.1 -11.1°
